AFR62 LFPG-KEWR

Flight info

Callsign AFR62
Flight time 7h 10m
Altitude 38000
Route LGL UN502 JSY DCT LIZAD DCT NAKID DCT EVCOR DCT LEDGO DCT RESNO/M082F380 DCT 56N020W 5630N03000W 56N040W 55N050W DCT LOMSI/N0475F380 N668A TAFFY DCT KJOHN DCT HANAA FLOSI4
Aircraft B772/H-SDE2E3FGHIJ5LORVWXY/LB1D1

Departure

Time 2026-04-25 06:34
Airport Charles de Gaulle International Airport (LFPG)

Arrival

Time 2026-04-25 13:44
Airport Newark Liberty International Airport (KEWR)
Time Latitude Longitude Altitude Speed Heading
2026-04-25 06:27 48.99990 2.58045 343 ft 11 kts 269°
2026-04-25 06:28 48.99985 2.57907 346 ft 15 kts 268°
2026-04-25 06:28 48.99976 2.57708 350 ft 21 kts 265°
2026-04-25 06:28 48.99966 2.57460 358 ft 25 kts 267°
2026-04-25 06:28 48.99952 2.57215 360 ft 22 kts 268°
2026-04-25 06:29 48.99939 2.56995 359 ft 20 kts 265°
2026-04-25 06:29 48.99927 2.56761 355 ft 23 kts 265°
2026-04-25 06:29 48.99912 2.56497 351 ft 25 kts 267°
2026-04-25 06:29 48.99898 2.56252 346 ft 17 kts 267°
2026-04-25 06:30 48.99888 2.56050 342 ft 20 kts 266°
2026-04-25 06:30 48.99884 2.55845 338 ft 15 kts 235°
2026-04-25 06:30 48.99783 2.55805 338 ft 10 kts 175°
2026-04-25 06:30 48.99752 2.55809 339 ft 0 kts 176°
2026-04-25 06:32 48.99750 2.55809 339 ft 0 kts 176°
2026-04-25 06:32 48.99726 2.55812 339 ft 6 kts 176°
2026-04-25 06:32 48.99668 2.55819 340 ft 11 kts 176°
2026-04-25 06:32 48.99609 2.55901 341 ft 13 kts 102°
2026-04-25 06:33 48.99611 2.56061 341 ft 19 kts 86°
2026-04-25 06:33 48.99638 2.56566 347 ft 89 kts 84°
2026-04-25 06:33 48.99712 2.57952 346 ft 170 kts 84°
2026-04-25 06:33 48.99798 2.59899 940 ft 193 kts 85°
2026-04-25 06:34 48.99911 2.61876 2199 ft 193 kts 83°
2026-04-25 06:34 49.00028 2.63882 3367 ft 199 kts 84°
2026-04-25 06:34 49.00138 2.65944 4489 ft 204 kts 84°
2026-04-25 06:34 49.00251 2.68107 5487 ft 216 kts 84°
2026-04-25 06:35 49.00376 2.70469 6488 ft 230 kts 85°
2026-04-25 06:35 49.00502 2.72907 7578 ft 239 kts 85°
2026-04-25 06:35 49.00632 2.75433 8657 ft 246 kts 85°
2026-04-25 06:35 49.00756 2.78014 9592 ft 259 kts 88°
2026-04-25 06:36 49.00570 2.80904 10100 ft 289 kts 98°
2026-04-25 06:36 49.00234 2.83877 11312 ft 291 kts 99°
2026-04-25 06:36 48.99881 2.86927 12383 ft 298 kts 98°
2026-04-25 06:36 48.99523 2.90013 13355 ft 307 kts 98°
2026-04-25 06:37 48.99148 2.93235 14262 ft 319 kts 98°
2026-04-25 06:37 48.98745 2.96633 14999 ft 336 kts 101°
2026-04-25 06:37 48.97938 3.00040 15728 ft 354 kts 118°
2026-04-25 06:37 48.96435 3.03092 16607 ft 366 kts 136°
2026-04-25 06:38 48.94386 3.05328 17589 ft 373 kts 154°
2026-04-25 06:38 48.91914 3.06562 18532 ft 379 kts 172°
2026-04-25 06:38 48.89271 3.06644 19062 ft 396 kts 189°
2026-04-25 06:38 48.86530 3.05408 19144 ft 424 kts 208°
2026-04-25 06:39 48.84108 3.02676 19146 ft 449 kts 229°
2026-04-25 06:39 48.82438 2.98732 19138 ft 436 kts 250°
2026-04-25 06:39 48.81813 2.94277 19478 ft 444 kts 267°
2026-04-25 06:39 48.81649 2.89653 20730 ft 442 kts 269°
2026-04-25 06:40 48.81517 2.85099 22251 ft 433 kts 270°
2026-04-25 06:40 48.81385 2.80598 23765 ft 423 kts 270°
2026-04-25 06:40 48.81257 2.76281 25212 ft 414 kts 270°
2026-04-25 06:40 48.81128 2.71986 26621 ft 404 kts 270°
2026-04-25 06:41 48.81002 2.67832 27695 ft 401 kts 270°
2026-04-25 06:41 48.80874 2.63614 28402 ft 405 kts 270°
2026-04-25 06:41 48.80743 2.59319 28965 ft 412 kts 270°
2026-04-25 06:41 48.80607 2.54971 29554 ft 418 kts 270°
2026-04-25 06:42 48.80467 2.50552 30199 ft 421 kts 270°
2026-04-25 06:42 48.80323 2.46066 30815 ft 424 kts 270°
2026-04-25 06:42 48.80175 2.41513 31400 ft 428 kts 269°
2026-04-25 06:42 48.80039 2.36939 31899 ft 431 kts 271°
2026-04-25 06:43 48.80049 2.32415 32386 ft 434 kts 272°
2026-04-25 06:43 48.80077 2.27822 32872 ft 437 kts 271°
2026-04-25 06:43 48.80098 2.23183 33370 ft 440 kts 271°
2026-04-25 06:43 48.80113 2.18558 33791 ft 443 kts 271°
2026-04-25 06:44 48.80123 2.13885 34171 ft 446 kts 271°
2026-04-25 06:44 48.80129 2.09202 34586 ft 449 kts 271°
2026-04-25 06:44 48.80131 2.04458 34993 ft 450 kts 271°
2026-04-25 06:44 48.80130 1.99714 35321 ft 454 kts 271°
2026-04-25 06:45 48.80127 1.94994 35630 ft 457 kts 271°
2026-04-25 06:45 48.80120 1.90147 35953 ft 459 kts 270°
2026-04-25 06:45 48.80111 1.85295 36258 ft 461 kts 270°
2026-04-25 06:45 48.80100 1.80461 36580 ft 463 kts 270°
2026-04-25 06:46 48.80087 1.75581 36639 ft 470 kts 270°
2026-04-25 06:46 48.80053 1.65567 36837 ft 478 kts 270°
2026-04-25 06:46 48.80032 1.60570 37369 ft 473 kts 270°
2026-04-25 06:47 48.80009 1.55608 37915 ft 469 kts 270°
2026-04-25 06:47 48.79985 1.50751 38153 ft 470 kts 270°
2026-04-25 06:47 48.79958 1.45776 38164 ft 475 kts 270°
2026-04-25 06:48 48.79897 1.35692 38167 ft 482 kts 270°
2026-04-25 06:48 48.79826 1.25494 38160 ft 486 kts 269°
2026-04-25 06:49 48.79746 1.15297 38161 ft 487 kts 269°
2026-04-25 06:49 48.79657 1.05081 38158 ft 487 kts 269°
2026-04-25 06:50 48.79560 0.95022 38163 ft 470 kts 269°
2026-04-25 06:50 48.79456 0.85084 38163 ft 474 kts 269°
2026-04-25 06:51 48.79343 0.75105 38156 ft 477 kts 269°
2026-04-25 06:51 48.79222 0.65123 38157 ft 476 kts 269°
2026-04-25 06:52 48.79150 0.55087 38159 ft 476 kts 274°
2026-04-25 06:52 48.80407 0.45253 38166 ft 479 kts 285°
2026-04-25 06:53 48.82188 0.35570 38159 ft 479 kts 285°
2026-04-25 06:53 48.83953 0.25861 38164 ft 479 kts 284°
2026-04-25 06:54 48.85701 0.16148 38168 ft 480 kts 284°
2026-04-25 06:54 48.87445 0.06387 38165 ft 480 kts 284°
2026-04-25 06:55 48.89171 -0.03346 38161 ft 480 kts 284°
2026-04-25 06:55 48.90889 -0.13096 38167 ft 480 kts 284°
2026-04-25 06:56 48.92600 -0.22862 38159 ft 480 kts 284°
2026-04-25 06:56 48.94274 -0.32623 38158 ft 481 kts 283°
2026-04-25 06:57 48.95921 -0.42403 38158 ft 480 kts 283°
2026-04-25 06:57 48.97569 -0.52234 38155 ft 480 kts 283°
2026-04-25 06:58 48.99198 -0.62004 38152 ft 480 kts 283°
2026-04-25 06:58 49.00829 -0.71835 38152 ft 480 kts 282°
2026-04-25 06:59 49.02455 -0.81694 38151 ft 480 kts 282°
2026-04-25 06:59 49.04061 -0.91489 38154 ft 481 kts 282°
2026-04-25 07:00 49.05671 -1.01361 38157 ft 481 kts 282°
2026-04-25 07:00 49.07268 -1.11221 38157 ft 481 kts 282°
2026-04-25 07:01 49.08856 -1.21058 38212 ft 479 kts 282°
2026-04-25 07:01 49.10453 -1.30898 38095 ft 477 kts 282°
2026-04-25 07:02 49.12034 -1.40699 38162 ft 480 kts 282°
2026-04-25 07:02 49.13623 -1.50608 38156 ft 481 kts 282°
2026-04-25 07:03 49.15198 -1.60493 38157 ft 481 kts 282°
2026-04-25 07:03 49.16765 -1.70389 38164 ft 481 kts 281°
2026-04-25 07:04 49.18318 -1.80253 38160 ft 481 kts 281°
2026-04-25 07:04 49.19876 -1.90216 38160 ft 481 kts 281°
2026-04-25 07:05 49.21413 -2.00097 38161 ft 479 kts 281°
2026-04-25 07:05 49.22991 -2.09926 38155 ft 480 kts 283°
2026-04-25 07:06 49.24704 -2.19809 38151 ft 481 kts 283°
2026-04-25 07:06 49.26399 -2.29671 38151 ft 481 kts 283°
2026-04-25 07:07 49.28081 -2.39545 38153 ft 480 kts 283°
2026-04-25 07:07 49.29746 -2.49385 38154 ft 481 kts 283°
2026-04-25 07:08 49.31401 -2.59230 38153 ft 480 kts 283°
2026-04-25 07:08 49.33061 -2.69171 38148 ft 480 kts 282°
2026-04-25 07:09 49.34699 -2.79038 38152 ft 480 kts 282°
2026-04-25 07:09 49.36330 -2.88920 38146 ft 479 kts 282°
2026-04-25 07:10 49.37949 -2.98791 38136 ft 481 kts 282°
2026-04-25 07:10 49.39560 -3.08665 38151 ft 480 kts 282°
2026-04-25 07:11 49.41167 -3.18573 38144 ft 480 kts 282°
2026-04-25 07:11 49.42764 -3.28483 38148 ft 480 kts 282°
2026-04-25 07:12 49.44356 -3.38419 38149 ft 480 kts 283°
2026-04-25 07:12 49.46720 -3.53289 38137 ft 480 kts 283°
2026-04-25 07:13 49.48284 -3.63197 38148 ft 479 kts 283°
2026-04-25 07:13 49.49848 -3.73167 38147 ft 480 kts 282°
2026-04-25 07:14 49.51389 -3.83050 38154 ft 480 kts 282°
2026-04-25 07:14 49.52932 -3.93009 38150 ft 480 kts 282°
2026-04-25 07:15 49.54466 -4.02968 38150 ft 480 kts 282°
2026-04-25 07:15 49.55985 -4.12889 38149 ft 479 kts 282°
2026-04-25 07:16 49.57499 -4.22846 38149 ft 479 kts 282°
2026-04-25 07:16 49.59264 -4.32661 38150 ft 480 kts 291°
2026-04-25 07:17 49.62574 -4.41561 38151 ft 482 kts 302°
2026-04-25 07:17 49.66291 -4.50164 38149 ft 481 kts 302°
2026-04-25 07:18 49.69972 -4.58758 38150 ft 481 kts 302°
2026-04-25 07:18 49.73892 -4.67027 38150 ft 482 kts 306°
2026-04-25 07:19 49.78041 -4.75087 38157 ft 482 kts 306°
2026-04-25 07:19 49.82201 -4.83204 38157 ft 481 kts 306°
2026-04-25 07:20 49.86336 -4.91310 38159 ft 482 kts 306°
2026-04-25 07:20 49.90469 -4.99443 38157 ft 482 kts 306°
2026-04-25 07:21 49.94591 -5.07582 38156 ft 481 kts 306°
2026-04-25 07:21 49.98689 -5.15702 38156 ft 481 kts 306°
2026-04-25 07:22 50.02799 -5.23870 38155 ft 480 kts 306°
2026-04-25 07:22 50.06882 -5.32010 38154 ft 480 kts 306°
2026-04-25 07:23 50.10971 -5.40189 38151 ft 480 kts 306°
2026-04-25 07:23 50.15064 -5.48400 38151 ft 481 kts 306°
2026-04-25 07:24 50.19144 -5.56612 38147 ft 481 kts 306°
2026-04-25 07:24 50.23206 -5.64813 38145 ft 481 kts 306°
2026-04-25 07:25 50.27275 -5.73053 38148 ft 480 kts 305°
2026-04-25 07:25 50.31364 -5.81360 38142 ft 480 kts 305°
2026-04-25 07:26 50.35401 -5.89588 38144 ft 481 kts 305°
2026-04-25 07:26 50.39459 -5.97884 38145 ft 481 kts 305°
2026-04-25 07:27 50.43507 -6.06185 38143 ft 479 kts 305°
2026-04-25 07:27 50.47542 -6.14489 38140 ft 481 kts 305°
2026-04-25 07:28 50.51579 -6.22821 38144 ft 481 kts 305°
2026-04-25 07:28 50.55598 -6.31142 38142 ft 481 kts 305°
2026-04-25 07:29 50.59633 -6.39525 38143 ft 481 kts 305°
2026-04-25 07:29 50.63643 -6.47880 38141 ft 481 kts 305°
2026-04-25 07:30 50.67649 -6.56255 38138 ft 479 kts 305°
2026-04-25 07:30 50.71635 -6.64616 38140 ft 480 kts 304°
2026-04-25 07:31 50.75638 -6.73038 38143 ft 480 kts 304°
2026-04-25 07:31 50.79642 -6.81489 38141 ft 480 kts 304°
2026-04-25 07:32 50.83622 -6.89918 38135 ft 480 kts 303°
2026-04-25 07:32 50.87589 -6.98345 38138 ft 480 kts 303°
2026-04-25 07:33 50.91543 -7.06772 38136 ft 479 kts 304°
2026-04-25 07:33 50.95876 -7.14771 38143 ft 484 kts 314°
2026-04-25 07:34 51.00806 -7.22065 38131 ft 485 kts 314°
2026-04-25 07:34 51.05716 -7.29352 38137 ft 486 kts 314°
2026-04-25 07:35 51.10608 -7.36657 38131 ft 486 kts 314°
2026-04-25 07:35 51.15507 -7.44004 38126 ft 487 kts 314°
2026-04-25 07:36 51.20425 -7.51408 38136 ft 487 kts 314°
2026-04-25 07:36 51.25311 -7.58848 38128 ft 485 kts 311°
2026-04-25 07:37 51.29877 -7.66711 38135 ft 485 kts 309°
2026-04-25 07:37 51.34423 -7.74598 38136 ft 484 kts 309°
2026-04-25 07:38 51.38989 -7.82511 38132 ft 485 kts 309°
2026-04-25 07:38 51.43550 -7.90420 38128 ft 485 kts 309°
2026-04-25 07:39 51.48088 -7.98304 38135 ft 486 kts 309°
2026-04-25 07:39 51.52658 -8.06264 38133 ft 486 kts 309°
2026-04-25 07:40 51.57220 -8.14233 38141 ft 486 kts 309°
2026-04-25 07:40 51.61768 -8.22201 38134 ft 486 kts 309°
2026-04-25 07:41 51.66306 -8.30178 38131 ft 487 kts 309°
2026-04-25 07:41 51.70882 -8.38245 38143 ft 487 kts 309°
2026-04-25 07:42 51.75409 -8.46251 38144 ft 487 kts 309°
2026-04-25 07:42 51.79948 -8.54305 38145 ft 486 kts 309°
2026-04-25 07:43 51.84481 -8.62374 38136 ft 486 kts 309°
2026-04-25 07:43 51.89001 -8.70447 38139 ft 487 kts 309°
2026-04-25 07:44 51.93541 -8.78581 38142 ft 488 kts 309°
2026-04-25 07:44 51.98071 -8.86722 38138 ft 488 kts 309°
2026-04-25 07:45 52.02603 -8.94895 38125 ft 488 kts 309°
2026-04-25 07:45 52.07093 -9.03020 38125 ft 487 kts 309°
2026-04-25 07:46 52.11589 -9.11179 38125 ft 487 kts 309°
2026-04-25 07:46 52.16095 -9.19385 38120 ft 487 kts 309°
2026-04-25 07:47 52.20596 -9.27609 38114 ft 488 kts 309°
2026-04-25 07:47 52.25098 -9.35862 38116 ft 489 kts 309°
2026-04-25 07:48 52.29602 -9.44146 38122 ft 490 kts 309°
2026-04-25 07:48 52.34103 -9.52452 38126 ft 490 kts 309°
2026-04-25 07:49 52.38603 -9.60784 38121 ft 490 kts 309°
2026-04-25 07:49 52.43096 -9.69130 38148 ft 490 kts 308°
2026-04-25 07:50 52.47567 -9.77464 38127 ft 490 kts 308°
2026-04-25 07:50 52.52056 -9.85859 38139 ft 492 kts 308°
2026-04-25 07:51 52.56529 -9.94253 38127 ft 491 kts 308°
2026-04-25 07:51 52.61031 -10.02730 38130 ft 493 kts 308°
2026-04-25 07:52 52.65498 -10.11168 38129 ft 492 kts 308°
2026-04-25 07:52 52.69983 -10.19672 38136 ft 493 kts 308°
2026-04-25 07:53 52.74446 -10.28160 38130 ft 493 kts 308°
2026-04-25 07:53 52.78919 -10.36698 38124 ft 493 kts 308°
2026-04-25 07:54 52.83384 -10.45249 38118 ft 494 kts 308°
2026-04-25 07:54 52.87856 -10.53844 38129 ft 494 kts 308°
2026-04-25 07:55 52.92311 -10.62435 38118 ft 494 kts 308°
2026-04-25 07:55 52.96749 -10.71024 38119 ft 494 kts 307°
2026-04-25 07:56 53.01214 -10.79692 38126 ft 494 kts 307°
2026-04-25 07:56 53.05643 -10.88323 38123 ft 495 kts 307°
2026-04-25 07:57 53.10106 -10.97052 38119 ft 497 kts 307°
2026-04-25 07:57 53.14542 -11.05754 38104 ft 497 kts 307°
2026-04-25 07:58 53.18992 -11.14518 38111 ft 497 kts 307°
2026-04-25 07:58 53.23441 -11.23309 38100 ft 497 kts 307°
2026-04-25 07:59 53.27866 -11.32085 38107 ft 498 kts 307°
2026-04-25 07:59 53.32316 -11.40940 38091 ft 498 kts 308°
2026-04-25 08:00 53.36756 -11.49807 38102 ft 500 kts 307°
2026-04-25 08:00 53.41208 -11.58731 38095 ft 499 kts 307°
2026-04-25 08:01 53.45649 -11.67663 38102 ft 500 kts 307°
2026-04-25 08:01 53.50062 -11.76573 38088 ft 501 kts 307°
2026-04-25 08:02 53.54499 -11.85564 38090 ft 502 kts 307°
2026-04-25 08:02 53.58934 -11.94580 38092 ft 501 kts 307°
2026-04-25 08:03 53.63375 -12.03644 38086 ft 504 kts 307°
2026-04-25 08:03 53.67790 -12.12687 38087 ft 502 kts 307°
2026-04-25 08:04 53.72224 -12.21802 38101 ft 504 kts 307°
2026-04-25 08:04 53.76639 -12.30912 38097 ft 505 kts 307°
2026-04-25 08:05 53.81071 -12.40090 38093 ft 506 kts 307°
2026-04-25 08:05 53.85469 -12.49233 38095 ft 506 kts 307°
2026-04-25 08:06 53.89906 -12.58488 38091 ft 506 kts 307°
2026-04-25 08:06 53.94338 -12.67769 38091 ft 506 kts 306°
2026-04-25 08:07 53.98732 -12.77005 38092 ft 508 kts 306°
2026-04-25 08:07 54.03150 -12.86326 38090 ft 508 kts 306°
2026-04-25 08:08 54.07572 -12.95692 38088 ft 509 kts 306°
2026-04-25 08:08 54.11964 -13.05028 38091 ft 510 kts 306°
2026-04-25 08:09 54.16400 -13.14493 38084 ft 509 kts 306°
2026-04-25 08:09 54.20792 -13.23899 38082 ft 510 kts 306°
2026-04-25 08:10 54.25178 -13.33330 38087 ft 511 kts 306°
2026-04-25 08:10 54.29587 -13.42846 38081 ft 511 kts 306°
2026-04-25 08:11 54.33968 -13.52338 38078 ft 512 kts 306°
2026-04-25 08:11 54.38377 -13.61928 38078 ft 512 kts 306°
2026-04-25 08:12 54.42752 -13.71479 38080 ft 512 kts 306°
2026-04-25 08:12 54.47127 -13.81069 38074 ft 513 kts 306°
2026-04-25 08:13 54.51493 -13.90675 38074 ft 513 kts 306°
2026-04-25 08:14 54.58054 -14.05184 38077 ft 515 kts 306°
2026-04-25 08:14 54.62417 -14.14876 38078 ft 515 kts 306°
2026-04-25 08:15 54.66793 -14.24637 38069 ft 515 kts 306°
2026-04-25 08:15 54.71170 -14.34440 38072 ft 516 kts 306°
2026-04-25 08:16 54.75524 -14.44229 38068 ft 516 kts 306°
2026-04-25 08:16 54.79888 -14.54080 38062 ft 515 kts 306°
2026-04-25 08:17 54.84238 -14.63940 38068 ft 517 kts 306°
2026-04-25 08:17 54.88569 -14.73795 38064 ft 517 kts 305°
2026-04-25 08:18 54.92894 -14.83677 38074 ft 518 kts 305°
2026-04-25 08:18 54.97243 -14.93655 38070 ft 519 kts 304°
2026-04-25 08:19 55.00703 -15.04485 38072 ft 515 kts 291°
2026-04-25 08:19 55.03444 -15.16007 38079 ft 515 kts 290°
2026-04-25 08:20 55.06093 -15.27530 38065 ft 515 kts 289°
2026-04-25 08:20 55.08699 -15.39072 38077 ft 515 kts 289°
2026-04-25 08:21 55.11298 -15.50728 38070 ft 516 kts 289°
2026-04-25 08:21 55.13877 -15.62405 38058 ft 517 kts 289°
2026-04-25 08:22 55.16420 -15.74008 38056 ft 516 kts 289°
2026-04-25 08:22 55.18972 -15.85729 38060 ft 517 kts 288°
2026-04-25 08:23 55.21512 -15.97471 38050 ft 515 kts 288°
2026-04-25 08:23 55.24026 -16.09163 38049 ft 516 kts 288°
2026-04-25 08:24 55.26538 -16.20915 38059 ft 518 kts 289°
2026-04-25 08:24 55.29032 -16.32652 38049 ft 517 kts 289°
2026-04-25 08:25 55.31536 -16.44505 38044 ft 518 kts 289°
2026-04-25 08:25 55.34019 -16.56326 38040 ft 518 kts 289°
2026-04-25 08:26 55.36480 -16.68109 38034 ft 518 kts 288°
2026-04-25 08:26 55.38944 -16.79982 38034 ft 517 kts 288°
2026-04-25 08:27 55.41391 -16.91843 38039 ft 518 kts 288°
2026-04-25 08:27 55.43821 -17.03691 38040 ft 518 kts 288°
2026-04-25 08:28 55.46247 -17.15586 38044 ft 519 kts 288°
2026-04-25 08:28 55.48669 -17.27534 38038 ft 519 kts 288°
2026-04-25 08:29 55.51087 -17.39537 38030 ft 519 kts 288°
2026-04-25 08:29 55.53466 -17.51422 38034 ft 519 kts 288°
2026-04-25 08:30 55.55861 -17.63453 38027 ft 520 kts 288°
2026-04-25 08:30 55.58243 -17.75495 38023 ft 520 kts 287°
2026-04-25 08:31 55.60598 -17.87475 38017 ft 520 kts 287°
2026-04-25 08:31 55.62958 -17.99553 38020 ft 521 kts 287°
2026-04-25 08:32 55.65304 -18.11638 38014 ft 520 kts 287°
2026-04-25 08:32 55.67634 -18.23715 38011 ft 520 kts 287°
2026-04-25 08:33 55.69953 -18.35808 38012 ft 521 kts 287°
2026-04-25 08:33 55.72264 -18.47941 38014 ft 522 kts 287°
2026-04-25 08:34 55.74565 -18.60093 38014 ft 523 kts 287°
2026-04-25 08:34 55.76859 -18.72292 38011 ft 522 kts 287°
2026-04-25 08:35 55.79132 -18.84452 38008 ft 522 kts 287°
2026-04-25 08:35 55.81399 -18.96661 38006 ft 521 kts 287°
2026-04-25 08:36 55.83658 -19.08904 38004 ft 522 kts 287°
2026-04-25 08:36 55.85905 -19.21167 38006 ft 524 kts 287°
2026-04-25 08:37 55.88135 -19.33416 38006 ft 523 kts 287°
2026-04-25 08:37 55.90357 -19.45702 38001 ft 523 kts 287°
2026-04-25 08:38 55.92563 -19.57981 38001 ft 522 kts 287°
2026-04-25 08:38 55.94759 -19.70281 37996 ft 523 kts 286°
2026-04-25 08:39 55.96946 -19.82624 37990 ft 523 kts 286°
2026-04-25 08:39 55.99123 -19.94990 37992 ft 525 kts 285°
2026-04-25 08:40 56.00626 -20.07673 37989 ft 523 kts 278°
2026-04-25 08:40 56.01811 -20.20409 37990 ft 522 kts 278°
2026-04-25 08:41 56.02967 -20.33174 37998 ft 523 kts 277°
2026-04-25 08:41 56.04104 -20.45964 37989 ft 522 kts 278°
2026-04-25 08:42 56.05219 -20.58719 37977 ft 523 kts 278°
2026-04-25 08:42 56.06323 -20.71523 37985 ft 523 kts 277°
2026-04-25 08:43 56.07411 -20.84325 37985 ft 522 kts 277°
2026-04-25 08:43 56.08487 -20.97154 37978 ft 523 kts 277°
2026-04-25 08:44 56.09551 -21.10019 37988 ft 523 kts 277°
2026-04-25 08:44 56.10598 -21.22852 37987 ft 524 kts 277°
2026-04-25 08:45 56.11634 -21.35714 37978 ft 523 kts 277°
2026-04-25 08:45 56.12661 -21.48635 37979 ft 525 kts 277°
2026-04-25 08:46 56.13665 -21.61455 37984 ft 524 kts 277°
2026-04-25 08:46 56.14665 -21.74392 37976 ft 523 kts 276°
2026-04-25 08:47 56.15646 -21.87262 37971 ft 524 kts 276°
2026-04-25 08:47 56.16611 -22.00112 37968 ft 524 kts 276°
2026-04-25 08:48 56.17570 -22.13067 37972 ft 525 kts 276°
2026-04-25 08:48 56.18513 -22.25986 37973 ft 525 kts 276°
2026-04-25 08:49 56.19450 -22.39018 37965 ft 526 kts 276°
2026-04-25 08:49 56.20367 -22.51979 37967 ft 525 kts 276°
2026-04-25 08:50 56.21267 -22.64887 37966 ft 524 kts 276°
2026-04-25 08:50 56.22158 -22.77862 37960 ft 525 kts 275°
2026-04-25 08:51 56.23033 -22.90814 37955 ft 525 kts 275°
2026-04-25 08:51 56.23900 -23.03845 37957 ft 525 kts 275°
2026-04-25 08:52 56.24749 -23.16835 37954 ft 526 kts 275°
2026-04-25 08:52 56.25584 -23.29818 37954 ft 526 kts 275°
2026-04-25 08:53 56.26407 -23.42822 37951 ft 525 kts 275°
2026-04-25 08:53 56.27214 -23.55807 37950 ft 524 kts 275°
2026-04-25 08:54 56.28009 -23.68812 37946 ft 525 kts 274°
2026-04-25 08:54 56.28786 -23.81756 37945 ft 525 kts 275°
2026-04-25 08:55 56.29557 -23.94837 37936 ft 525 kts 275°
2026-04-25 08:55 56.30312 -24.07859 37940 ft 526 kts 274°
2026-04-25 08:56 56.31049 -24.20834 37936 ft 524 kts 275°
2026-04-25 08:56 56.31778 -24.33905 37940 ft 525 kts 275°
2026-04-25 08:57 56.32485 -24.46845 37938 ft 524 kts 275°
2026-04-25 08:57 56.33187 -24.59929 37937 ft 524 kts 275°
2026-04-25 08:58 56.33868 -24.72895 37935 ft 524 kts 274°
2026-04-25 08:58 56.34540 -24.85945 37938 ft 524 kts 274°
2026-04-25 08:59 56.35198 -24.98999 37939 ft 525 kts 274°
2026-04-25 08:59 56.35841 -25.12020 37938 ft 525 kts 274°
2026-04-25 09:00 56.36474 -25.25125 37934 ft 525 kts 274°
2026-04-25 09:00 56.37089 -25.38177 37929 ft 523 kts 274°
2026-04-25 09:01 56.37688 -25.51154 37932 ft 524 kts 274°
2026-04-25 09:01 56.38277 -25.64218 37932 ft 524 kts 274°
2026-04-25 09:02 56.38853 -25.77302 37927 ft 524 kts 273°
2026-04-25 09:02 56.39415 -25.90383 37925 ft 523 kts 273°
2026-04-25 09:03 56.39961 -26.03405 37936 ft 524 kts 273°
2026-04-25 09:03 56.40494 -26.16469 37938 ft 523 kts 273°
2026-04-25 09:04 56.41013 -26.29509 37938 ft 523 kts 273°
2026-04-25 09:04 56.41519 -26.42602 37942 ft 523 kts 273°
2026-04-25 09:05 56.42009 -26.55590 37942 ft 522 kts 273°
2026-04-25 09:05 56.42484 -26.68583 37943 ft 522 kts 272°
2026-04-25 09:06 56.42948 -26.81647 37941 ft 522 kts 272°
2026-04-25 09:06 56.43398 -26.94682 37936 ft 522 kts 272°
2026-04-25 09:07 56.43834 -27.07734 37924 ft 523 kts 272°
2026-04-25 09:07 56.44259 -27.20841 37918 ft 523 kts 272°
2026-04-25 09:08 56.44665 -27.33837 37919 ft 523 kts 272°
2026-04-25 09:08 56.45060 -27.46877 37917 ft 523 kts 272°
2026-04-25 09:09 56.45442 -27.59955 37919 ft 522 kts 272°
2026-04-25 09:09 56.45809 -27.72997 37918 ft 522 kts 271°
2026-04-25 09:10 56.46164 -27.86087 37915 ft 524 kts 271°
2026-04-25 09:10 56.46504 -27.99167 37916 ft 524 kts 271°
2026-04-25 09:11 56.46988 -28.18749 37918 ft 523 kts 271°
2026-04-25 09:11 56.47294 -28.31827 37918 ft 522 kts 271°
2026-04-25 09:12 56.47586 -28.44878 37917 ft 522 kts 271°
2026-04-25 09:12 56.47864 -28.57950 37917 ft 523 kts 271°
2026-04-25 09:13 56.48129 -28.71038 37910 ft 522 kts 271°
2026-04-25 09:13 56.48380 -28.84142 37910 ft 522 kts 271°
2026-04-25 09:14 56.48616 -28.97142 37908 ft 521 kts 271°
2026-04-25 09:14 56.48839 -29.10207 37907 ft 521 kts 271°
2026-04-25 09:15 56.49050 -29.23359 37912 ft 522 kts 271°
2026-04-25 09:15 56.49245 -29.36429 37913 ft 522 kts 271°
2026-04-25 09:16 56.49427 -29.49488 37916 ft 522 kts 271°
2026-04-25 09:16 56.49596 -29.62547 37911 ft 522 kts 271°
2026-04-25 09:17 56.49822 -29.82129 37908 ft 521 kts 270°
2026-04-25 09:18 56.49956 -29.95206 37910 ft 522 kts 270°
2026-04-25 09:18 56.49900 -30.08195 37913 ft 521 kts 268°
2026-04-25 09:19 56.49772 -30.21285 37912 ft 521 kts 268°
2026-04-25 09:19 56.49627 -30.34347 37908 ft 521 kts 268°
2026-04-25 09:20 56.49465 -30.47371 37913 ft 522 kts 268°
2026-04-25 09:20 56.49289 -30.60404 37907 ft 520 kts 268°
2026-04-25 09:21 56.49098 -30.73420 37906 ft 520 kts 267°
2026-04-25 09:21 56.48893 -30.86492 37907 ft 521 kts 267°
2026-04-25 09:22 56.48674 -30.99485 37908 ft 521 kts 267°
2026-04-25 09:22 56.48443 -31.12494 37905 ft 520 kts 267°
2026-04-25 09:23 56.48195 -31.25584 37900 ft 519 kts 267°
2026-04-25 09:23 56.47936 -31.38566 37898 ft 519 kts 267°
2026-04-25 09:24 56.47664 -31.51526 37900 ft 520 kts 267°
2026-04-25 09:24 56.47377 -31.64542 37903 ft 519 kts 267°
2026-04-25 09:25 56.47076 -31.77538 37898 ft 518 kts 266°
2026-04-25 09:25 56.46764 -31.90462 37889 ft 519 kts 266°
2026-04-25 09:26 56.46438 -32.03416 37883 ft 518 kts 266°
2026-04-25 09:26 56.46098 -32.16381 37885 ft 519 kts 266°
2026-04-25 09:27 56.45744 -32.29346 37887 ft 518 kts 266°
2026-04-25 09:27 56.45378 -32.42273 37889 ft 518 kts 266°
2026-04-25 09:28 56.44997 -32.55248 37887 ft 519 kts 266°
2026-04-25 09:28 56.44601 -32.68253 37885 ft 518 kts 265°
2026-04-25 09:29 56.44195 -32.81154 37887 ft 518 kts 265°
2026-04-25 09:29 56.43775 -32.94073 37890 ft 518 kts 265°
2026-04-25 09:30 56.43341 -33.06979 37882 ft 518 kts 265°
2026-04-25 09:30 56.42894 -33.19900 37885 ft 518 kts 265°
2026-04-25 09:31 56.42430 -33.32912 37884 ft 518 kts 265°
2026-04-25 09:31 56.41957 -33.45811 37882 ft 518 kts 265°
2026-04-25 09:32 56.41470 -33.58689 37886 ft 518 kts 265°
2026-04-25 09:32 56.40967 -33.71656 37882 ft 518 kts 264°
2026-04-25 09:33 56.40453 -33.84544 37882 ft 518 kts 265°
2026-04-25 09:33 56.39923 -33.97493 37884 ft 518 kts 265°
2026-04-25 09:34 56.39380 -34.10443 37883 ft 518 kts 265°
2026-04-25 09:34 56.38825 -34.23341 37883 ft 519 kts 264°
2026-04-25 09:35 56.38258 -34.36229 37884 ft 519 kts 264°
2026-04-25 09:35 56.37676 -34.49129 37880 ft 518 kts 265°
2026-04-25 09:36 56.37077 -34.62086 37882 ft 519 kts 264°
2026-04-25 09:36 56.36468 -34.74994 37881 ft 519 kts 264°
2026-04-25 09:37 56.35846 -34.87872 37869 ft 519 kts 264°
2026-04-25 09:37 56.35210 -35.00761 37864 ft 519 kts 264°
2026-04-25 09:38 56.34560 -35.13665 37867 ft 519 kts 264°
2026-04-25 09:38 56.33897 -35.26549 37867 ft 518 kts 264°
2026-04-25 09:39 56.33221 -35.39429 37870 ft 518 kts 264°
2026-04-25 09:39 56.32532 -35.52296 37869 ft 518 kts 264°
2026-04-25 09:40 56.31473 -35.71586 37864 ft 519 kts 263°
2026-04-25 09:40 56.30747 -35.84503 37862 ft 518 kts 263°
2026-04-25 09:41 56.30010 -35.97375 37858 ft 520 kts 263°
2026-04-25 09:41 56.29263 -36.10189 37858 ft 519 kts 263°
2026-04-25 09:42 56.28500 -36.23038 37858 ft 519 kts 263°
2026-04-25 09:42 56.27721 -36.35939 37863 ft 519 kts 263°
2026-04-25 09:43 56.26934 -36.48723 37859 ft 518 kts 263°
2026-04-25 09:43 56.26128 -36.61613 37857 ft 518 kts 263°
2026-04-25 09:44 56.25316 -36.74381 37856 ft 519 kts 262°
2026-04-25 09:44 56.24485 -36.87231 37857 ft 519 kts 262°
2026-04-25 09:45 56.23638 -37.00099 37856 ft 520 kts 262°
2026-04-25 09:45 56.22782 -37.12925 37854 ft 518 kts 262°
2026-04-25 09:46 56.21916 -37.25684 37857 ft 519 kts 262°
2026-04-25 09:46 56.21032 -37.38506 37850 ft 518 kts 262°
2026-04-25 09:47 56.20135 -37.51320 37855 ft 519 kts 262°
2026-04-25 09:47 56.19225 -37.64127 37852 ft 518 kts 262°
2026-04-25 09:48 56.18303 -37.76903 37838 ft 520 kts 261°
2026-04-25 09:48 56.17371 -37.89646 37839 ft 519 kts 261°
2026-04-25 09:49 56.16424 -38.02394 37836 ft 518 kts 262°
2026-04-25 09:49 56.15461 -38.15184 37839 ft 519 kts 262°
2026-04-25 09:50 56.14487 -38.27930 37836 ft 518 kts 261°
2026-04-25 09:50 56.13500 -38.40672 37828 ft 519 kts 261°
2026-04-25 09:51 56.12497 -38.53445 37831 ft 519 kts 261°
2026-04-25 09:51 56.11478 -38.66241 37832 ft 519 kts 261°
2026-04-25 09:52 56.10451 -38.78972 37837 ft 520 kts 261°
2026-04-25 09:52 56.09412 -38.91672 37834 ft 518 kts 261°
2026-04-25 09:53 56.08355 -39.04445 37835 ft 518 kts 261°
2026-04-25 09:53 56.07290 -39.17134 37831 ft 519 kts 261°
2026-04-25 09:54 56.06212 -39.29814 37840 ft 520 kts 261°
2026-04-25 09:54 56.05112 -39.42598 37842 ft 519 kts 261°
2026-04-25 09:55 56.04008 -39.55267 37831 ft 519 kts 261°
2026-04-25 09:55 56.02893 -39.67915 37826 ft 520 kts 260°
2026-04-25 09:56 56.01759 -39.80618 37825 ft 520 kts 260°
2026-04-25 09:56 56.00608 -39.93348 37826 ft 520 kts 260°
2026-04-25 09:57 55.99547 -40.06045 37826 ft 519 kts 263°
2026-04-25 09:57 55.98840 -40.18775 37826 ft 519 kts 264°
2026-04-25 09:58 55.98112 -40.31530 37823 ft 520 kts 263°
2026-04-25 09:58 55.97350 -40.44387 37805 ft 520 kts 263°
2026-04-25 09:59 55.96574 -40.57127 37805 ft 521 kts 263°
2026-04-25 09:59 55.95781 -40.69875 37798 ft 520 kts 263°
2026-04-25 10:00 55.94964 -40.82724 37803 ft 521 kts 262°
2026-04-25 10:00 55.94142 -40.95433 37801 ft 519 kts 263°
2026-04-25 10:01 55.93304 -41.08168 37807 ft 519 kts 263°
2026-04-25 10:01 55.92453 -41.20895 37797 ft 521 kts 263°
2026-04-25 10:02 55.91585 -41.33666 37801 ft 522 kts 263°
2026-04-25 10:02 55.90705 -41.46409 37802 ft 521 kts 263°
2026-04-25 10:03 55.89813 -41.59139 37801 ft 521 kts 263°
2026-04-25 10:03 55.88906 -41.71876 37797 ft 522 kts 262°
2026-04-25 10:04 55.87980 -41.84690 37798 ft 522 kts 262°
2026-04-25 10:04 55.87042 -41.97485 37796 ft 522 kts 262°
2026-04-25 10:05 55.86100 -42.10147 37794 ft 520 kts 262°
2026-04-25 10:05 55.85141 -42.22855 37795 ft 522 kts 262°
2026-04-25 10:06 55.84168 -42.35572 37803 ft 522 kts 262°
2026-04-25 10:06 55.83178 -42.48331 37784 ft 523 kts 262°
2026-04-25 10:07 55.82169 -42.61154 37785 ft 524 kts 262°
2026-04-25 10:07 55.81151 -42.73919 37782 ft 523 kts 261°
2026-04-25 10:08 55.80128 -42.86583 37776 ft 522 kts 261°
2026-04-25 10:08 55.79084 -42.99333 37786 ft 524 kts 261°
2026-04-25 10:09 55.78026 -43.12078 37787 ft 524 kts 261°
2026-04-25 10:09 55.76956 -43.24812 37783 ft 524 kts 261°
2026-04-25 10:10 55.75867 -43.37595 37793 ft 525 kts 261°
2026-04-25 10:10 55.74770 -43.50327 37782 ft 523 kts 261°
2026-04-25 10:11 55.73663 -43.62997 37784 ft 524 kts 261°
2026-04-25 10:11 55.72542 -43.75686 37783 ft 525 kts 260°
2026-04-25 10:12 55.71403 -43.88413 37775 ft 524 kts 260°
2026-04-25 10:13 55.69666 -44.07541 37784 ft 526 kts 260°
2026-04-25 10:13 55.68499 -44.20202 37777 ft 526 kts 260°
2026-04-25 10:14 55.67305 -44.32996 37781 ft 525 kts 260°
2026-04-25 10:14 55.66107 -44.45692 37788 ft 526 kts 260°
2026-04-25 10:15 55.64894 -44.58402 37782 ft 526 kts 260°
2026-04-25 10:15 55.63667 -44.71109 37774 ft 526 kts 259°
2026-04-25 10:16 55.62425 -44.83824 37773 ft 527 kts 259°
2026-04-25 10:16 55.61176 -44.96478 37779 ft 527 kts 259°
2026-04-25 10:17 55.59905 -45.09203 37774 ft 527 kts 259°
2026-04-25 10:17 55.58622 -45.21916 37771 ft 527 kts 259°
2026-04-25 10:18 55.57333 -45.34542 37779 ft 527 kts 259°
2026-04-25 10:18 55.56023 -45.47252 37776 ft 527 kts 259°
2026-04-25 10:19 55.54702 -45.59920 37782 ft 527 kts 259°
2026-04-25 10:19 55.53365 -45.72609 37781 ft 527 kts 259°
2026-04-25 10:20 55.52023 -45.85225 37776 ft 527 kts 259°
2026-04-25 10:20 55.50660 -45.97897 37785 ft 527 kts 259°
2026-04-25 10:21 55.49285 -46.10547 37781 ft 527 kts 259°
2026-04-25 10:21 55.47899 -46.23174 37777 ft 528 kts 259°
2026-04-25 10:22 55.46499 -46.35803 37778 ft 528 kts 259°
2026-04-25 10:22 55.45088 -46.48405 37794 ft 528 kts 259°
2026-04-25 10:23 55.43664 -46.60994 37804 ft 528 kts 259°
2026-04-25 10:23 55.42222 -46.73621 37797 ft 528 kts 258°
2026-04-25 10:24 55.40760 -46.86298 37801 ft 529 kts 258°
2026-04-25 10:24 55.39288 -46.98946 37799 ft 529 kts 258°
2026-04-25 10:25 55.37811 -47.11512 37798 ft 529 kts 258°
2026-04-25 10:25 55.36317 -47.24097 37801 ft 529 kts 258°
2026-04-25 10:26 55.34802 -47.36749 37793 ft 528 kts 258°
2026-04-25 10:26 55.33284 -47.49305 37793 ft 529 kts 258°
2026-04-25 10:27 55.31752 -47.61859 37792 ft 530 kts 258°
2026-04-25 10:27 55.30203 -47.74439 37794 ft 530 kts 257°
2026-04-25 10:28 55.28639 -47.87021 37803 ft 530 kts 258°
2026-04-25 10:28 55.27056 -47.99645 37809 ft 531 kts 258°
2026-04-25 10:29 55.25470 -48.12180 37810 ft 531 kts 257°
2026-04-25 10:29 55.23869 -48.24729 37813 ft 531 kts 258°
2026-04-25 10:30 55.22246 -48.37329 37813 ft 531 kts 258°
2026-04-25 10:30 55.20610 -48.49920 37807 ft 532 kts 258°
2026-04-25 10:31 55.18963 -48.62489 37800 ft 531 kts 258°
2026-04-25 10:31 55.17312 -48.74976 37791 ft 532 kts 257°
2026-04-25 10:32 55.15635 -48.87556 37797 ft 533 kts 257°
2026-04-25 10:32 55.13944 -49.00129 37809 ft 534 kts 257°
2026-04-25 10:33 55.12239 -49.12707 37818 ft 533 kts 257°
2026-04-25 10:33 55.10522 -49.25260 37819 ft 533 kts 257°
2026-04-25 10:34 55.08797 -49.37767 37807 ft 533 kts 257°
2026-04-25 10:34 55.07058 -49.50273 37820 ft 535 kts 257°
2026-04-25 10:35 55.05301 -49.62804 37807 ft 534 kts 257°
2026-04-25 10:35 55.03525 -49.75368 37803 ft 535 kts 256°
2026-04-25 10:36 55.01742 -49.87886 37810 ft 535 kts 256°
2026-04-25 10:36 54.99670 -50.00299 37811 ft 535 kts 249°
2026-04-25 10:37 54.96919 -50.12252 37809 ft 535 kts 248°
2026-04-25 10:37 54.94091 -50.24160 37810 ft 534 kts 247°
2026-04-25 10:38 54.91223 -50.36063 37815 ft 535 kts 247°
2026-04-25 10:38 54.88339 -50.47908 37805 ft 534 kts 247°
2026-04-25 10:39 54.85438 -50.59727 37812 ft 536 kts 247°
2026-04-25 10:39 54.82526 -50.71506 37802 ft 536 kts 246°
2026-04-25 10:40 54.79578 -50.83362 37805 ft 535 kts 246°
2026-04-25 10:40 54.76639 -50.95111 37807 ft 535 kts 246°
2026-04-25 10:41 54.73673 -51.06902 37808 ft 536 kts 246°
2026-04-25 10:41 54.70697 -51.18669 37810 ft 536 kts 246°
2026-04-25 10:42 54.67714 -51.30398 37820 ft 536 kts 246°
2026-04-25 10:42 54.64718 -51.42117 37813 ft 535 kts 246°
2026-04-25 10:43 54.61722 -51.53776 37828 ft 536 kts 246°
2026-04-25 10:43 54.58688 -51.65520 37824 ft 536 kts 245°
2026-04-25 10:44 54.55669 -51.77143 37815 ft 535 kts 246°
2026-04-25 10:44 54.52628 -51.88796 37820 ft 535 kts 245°
2026-04-25 10:45 54.49567 -52.00460 37811 ft 535 kts 245°
2026-04-25 10:45 54.46510 -52.12054 37808 ft 536 kts 246°
2026-04-25 10:46 54.43434 -52.23655 37819 ft 535 kts 246°
2026-04-25 10:46 54.40349 -52.35233 37825 ft 536 kts 246°
2026-04-25 10:47 54.37266 -52.46747 37819 ft 536 kts 246°
2026-04-25 10:47 54.34142 -52.58351 37816 ft 536 kts 246°
2026-04-25 10:48 54.31021 -52.69886 37816 ft 536 kts 245°
2026-04-25 10:48 54.27899 -52.81370 37826 ft 536 kts 245°
2026-04-25 10:49 54.24755 -52.92873 37827 ft 536 kts 245°
2026-04-25 10:49 54.21597 -53.04376 37822 ft 536 kts 245°
2026-04-25 10:50 54.18441 -53.15810 37827 ft 536 kts 245°
2026-04-25 10:50 54.15260 -53.27277 37830 ft 536 kts 245°
2026-04-25 10:51 54.12078 -53.38691 37826 ft 535 kts 245°
2026-04-25 10:51 54.08894 -53.50061 37837 ft 536 kts 245°
2026-04-25 10:52 54.05678 -53.61482 37841 ft 537 kts 245°
2026-04-25 10:52 54.02449 -53.72897 37833 ft 536 kts 244°
2026-04-25 10:53 53.99218 -53.84262 37836 ft 536 kts 244°
2026-04-25 10:53 53.95982 -53.95593 37845 ft 537 kts 244°
2026-04-25 10:54 53.92724 -54.06943 37850 ft 537 kts 244°
2026-04-25 10:54 53.89453 -54.18283 37854 ft 538 kts 244°
2026-04-25 10:55 53.86171 -54.29605 37855 ft 536 kts 244°
2026-04-25 10:55 53.82887 -54.40882 37854 ft 536 kts 244°
2026-04-25 10:56 53.79599 -54.52118 37861 ft 535 kts 244°
2026-04-25 10:56 53.76283 -54.63397 37867 ft 537 kts 244°
2026-04-25 10:57 53.72970 -54.74611 37856 ft 536 kts 244°
2026-04-25 10:57 53.69655 -54.85782 37851 ft 537 kts 244°
2026-04-25 10:58 53.66298 -54.97035 37848 ft 536 kts 244°
2026-04-25 10:58 53.62961 -55.08172 37868 ft 536 kts 244°
2026-04-25 10:59 53.59610 -55.19304 37874 ft 536 kts 244°
2026-04-25 10:59 53.56250 -55.30414 37869 ft 537 kts 244°
2026-04-25 11:00 53.52872 -55.41532 37875 ft 537 kts 244°
2026-04-25 11:00 53.49468 -55.52681 37879 ft 537 kts 244°
2026-04-25 11:01 53.46055 -55.63811 37882 ft 536 kts 244°
2026-04-25 11:01 53.42653 -55.74850 37872 ft 536 kts 243°
2026-04-25 11:02 53.39250 -55.85846 37889 ft 535 kts 243°
2026-04-25 11:02 53.35810 -55.96909 37898 ft 536 kts 243°
2026-04-25 11:03 53.32371 -56.07917 37890 ft 537 kts 243°
2026-04-25 11:03 53.28925 -56.18901 37889 ft 538 kts 243°
2026-04-25 11:04 53.25456 -56.29905 37889 ft 538 kts 243°
2026-04-25 11:04 53.21971 -56.40910 37886 ft 537 kts 243°
2026-04-25 11:05 53.18473 -56.51905 37886 ft 537 kts 243°
2026-04-25 11:05 53.15003 -56.62766 37891 ft 537 kts 244°
2026-04-25 11:06 53.11479 -56.73742 37872 ft 538 kts 242°
2026-04-25 11:06 53.07338 -56.84069 37869 ft 540 kts 234°
2026-04-25 11:07 53.02958 -56.94112 37865 ft 540 kts 234°
2026-04-25 11:07 52.98531 -57.04159 37855 ft 539 kts 234°
2026-04-25 11:08 52.94124 -57.14087 37863 ft 538 kts 234°
2026-04-25 11:08 52.89676 -57.24051 37859 ft 538 kts 234°
2026-04-25 11:09 52.85234 -57.33952 37860 ft 539 kts 234°
2026-04-25 11:09 52.80804 -57.43785 37865 ft 538 kts 234°
2026-04-25 11:10 52.76355 -57.53617 37864 ft 537 kts 234°
2026-04-25 11:10 52.71885 -57.63455 37877 ft 536 kts 234°
2026-04-25 11:11 52.67419 -57.73245 37871 ft 535 kts 233°
2026-04-25 11:11 52.62977 -57.82945 37867 ft 535 kts 233°
2026-04-25 11:12 52.58499 -57.92685 37856 ft 535 kts 233°
2026-04-25 11:12 52.53999 -58.02438 37869 ft 534 kts 233°
2026-04-25 11:13 52.49558 -58.12026 37867 ft 533 kts 233°
2026-04-25 11:13 52.45088 -58.21637 37871 ft 532 kts 233°
2026-04-25 11:14 52.40588 -58.31279 37866 ft 531 kts 233°
2026-04-25 11:14 52.36108 -58.40840 37875 ft 532 kts 233°
2026-04-25 11:15 52.31629 -58.50365 37876 ft 532 kts 233°
2026-04-25 11:15 52.27145 -58.59866 37864 ft 530 kts 233°
2026-04-25 11:16 52.20404 -58.74078 37865 ft 529 kts 233°
2026-04-25 11:16 52.15893 -58.83547 37861 ft 529 kts 233°
2026-04-25 11:17 52.11396 -58.92952 37871 ft 530 kts 233°
2026-04-25 11:17 52.06885 -59.02350 37882 ft 530 kts 233°
2026-04-25 11:18 52.02337 -59.11792 37882 ft 531 kts 233°
2026-04-25 11:18 51.97805 -59.21166 37882 ft 530 kts 233°
2026-04-25 11:19 51.93254 -59.30543 37881 ft 530 kts 233°
2026-04-25 11:19 51.88738 -59.39814 37873 ft 530 kts 233°
2026-04-25 11:20 51.84183 -59.49134 37874 ft 531 kts 233°
2026-04-25 11:20 51.79603 -59.58468 37862 ft 531 kts 233°
2026-04-25 11:21 51.75006 -59.67804 37861 ft 532 kts 232°
2026-04-25 11:21 51.70414 -59.77096 37865 ft 531 kts 232°
2026-04-25 11:22 51.66580 -59.84828 37870 ft 531 kts 232°
2026-04-25 11:22 51.61220 -59.95600 37882 ft 532 kts 232°
2026-04-25 11:23 51.56614 -60.04818 37891 ft 531 kts 232°
2026-04-25 11:23 51.51981 -60.14060 37895 ft 532 kts 232°
2026-04-25 11:24 51.47349 -60.23266 37893 ft 532 kts 232°
2026-04-25 11:24 51.42723 -60.32426 37891 ft 531 kts 232°
2026-04-25 11:25 51.38074 -60.41599 37886 ft 531 kts 232°
2026-04-25 11:25 51.33461 -60.50670 37893 ft 530 kts 232°
2026-04-25 11:26 51.28802 -60.59797 37896 ft 529 kts 232°
2026-04-25 11:26 51.24169 -60.68842 37903 ft 530 kts 231°
2026-04-25 11:27 51.19512 -60.77902 37913 ft 529 kts 231°
2026-04-25 11:27 51.15650 -60.85390 37901 ft 527 kts 231°
2026-04-25 11:28 51.10233 -60.95859 37909 ft 526 kts 231°
2026-04-25 11:28 51.05593 -61.04792 37900 ft 527 kts 231°
2026-04-25 11:29 51.00936 -61.13726 37906 ft 526 kts 231°
2026-04-25 11:29 50.96283 -61.22623 37899 ft 527 kts 231°
2026-04-25 11:30 50.91622 -61.31503 37915 ft 528 kts 231°
2026-04-25 11:30 50.86922 -61.40426 37903 ft 528 kts 231°
2026-04-25 11:31 50.82223 -61.49316 37904 ft 528 kts 231°
2026-04-25 11:31 50.77547 -61.58134 37906 ft 528 kts 231°
2026-04-25 11:32 50.72809 -61.67038 37908 ft 529 kts 230°
2026-04-25 11:32 50.68109 -61.75839 37910 ft 529 kts 230°
2026-04-25 11:33 50.63385 -61.84656 37916 ft 529 kts 230°
2026-04-25 11:33 50.58636 -61.93489 37918 ft 530 kts 230°
2026-04-25 11:34 50.53894 -62.02279 37918 ft 529 kts 230°
2026-04-25 11:34 50.49133 -62.11074 37926 ft 529 kts 230°
2026-04-25 11:35 50.44385 -62.19815 37934 ft 528 kts 230°
2026-04-25 11:35 50.39653 -62.28498 37937 ft 529 kts 230°
2026-04-25 11:36 50.34859 -62.37264 37938 ft 529 kts 230°
2026-04-25 11:36 50.30112 -62.45914 37945 ft 527 kts 230°
2026-04-25 11:37 50.25349 -62.54565 37940 ft 527 kts 230°
2026-04-25 11:37 50.20553 -62.63248 37954 ft 528 kts 230°
2026-04-25 11:38 50.15771 -62.71876 37961 ft 528 kts 230°
2026-04-25 11:38 50.10976 -62.80498 37969 ft 528 kts 230°
2026-04-25 11:39 50.06198 -62.89062 37965 ft 528 kts 230°
2026-04-25 11:39 50.01389 -62.97652 37976 ft 526 kts 230°
2026-04-25 11:40 49.96597 -63.06184 37978 ft 526 kts 230°
2026-04-25 11:40 49.91813 -63.14674 37977 ft 527 kts 230°
2026-04-25 11:41 49.86997 -63.23193 37970 ft 527 kts 230°
2026-04-25 11:41 49.82174 -63.31695 37966 ft 526 kts 230°
2026-04-25 11:42 49.77356 -63.40161 37962 ft 525 kts 230°
2026-04-25 11:42 49.72526 -63.48621 37961 ft 526 kts 230°
2026-04-25 11:43 49.67691 -63.57062 37966 ft 525 kts 230°
2026-04-25 11:43 49.62870 -63.65451 37978 ft 525 kts 229°
2026-04-25 11:44 49.58024 -63.73855 37985 ft 525 kts 229°
2026-04-25 11:44 49.53198 -63.82200 37992 ft 525 kts 229°
2026-04-25 11:45 49.48347 -63.90559 37992 ft 526 kts 229°
2026-04-25 11:45 49.43478 -63.98923 37999 ft 525 kts 229°
2026-04-25 11:46 49.38628 -64.07227 37993 ft 525 kts 229°
2026-04-25 11:46 49.33758 -64.15538 38001 ft 526 kts 229°
2026-04-25 11:47 49.28902 -64.23799 38004 ft 526 kts 229°
2026-04-25 11:47 49.24005 -64.32105 38006 ft 527 kts 229°
2026-04-25 11:48 49.19084 -64.40424 38018 ft 528 kts 229°
2026-04-25 11:48 49.14194 -64.48664 38002 ft 526 kts 229°
2026-04-25 11:49 49.09279 -64.56919 37996 ft 526 kts 229°
2026-04-25 11:49 49.04384 -64.65115 37997 ft 527 kts 228°
2026-04-25 11:50 48.99453 -64.73347 38001 ft 527 kts 229°
2026-04-25 11:50 48.94491 -64.81603 37994 ft 529 kts 229°
2026-04-25 11:51 48.89548 -64.89802 37986 ft 529 kts 229°
2026-04-25 11:51 48.84600 -64.97981 37972 ft 527 kts 229°
2026-04-25 11:52 48.79654 -65.06134 37972 ft 527 kts 229°
2026-04-25 11:52 48.74680 -65.14306 37975 ft 527 kts 229°
2026-04-25 11:53 48.69714 -65.22441 37977 ft 527 kts 229°
2026-04-25 11:53 48.64754 -65.30538 37976 ft 528 kts 229°
2026-04-25 11:54 48.59767 -65.38656 37976 ft 529 kts 229°
2026-04-25 11:55 48.52300 -65.50764 37985 ft 526 kts 229°
2026-04-25 11:55 48.47333 -65.58786 37986 ft 527 kts 229°
2026-04-25 11:56 48.42324 -65.66851 37993 ft 527 kts 228°
2026-04-25 11:56 48.37351 -65.74834 38006 ft 527 kts 228°
2026-04-25 11:57 48.32329 -65.82870 38011 ft 527 kts 228°
2026-04-25 11:57 48.27308 -65.90880 38008 ft 526 kts 228°
2026-04-25 11:58 48.22316 -65.98820 38008 ft 525 kts 228°
2026-04-25 11:58 48.17330 -66.06726 38008 ft 527 kts 228°
2026-04-25 11:59 48.12298 -66.14681 38014 ft 528 kts 228°
2026-04-25 11:59 48.07262 -66.22617 38035 ft 527 kts 228°
2026-04-25 12:00 47.99712 -66.34471 38044 ft 526 kts 228°
2026-04-25 12:01 47.92142 -66.46301 38045 ft 527 kts 229°
2026-04-25 12:01 47.87100 -66.54153 38028 ft 528 kts 229°
2026-04-25 12:02 47.79514 -66.65919 38028 ft 527 kts 228°
2026-04-25 12:02 47.74455 -66.73738 38038 ft 526 kts 228°
2026-04-25 12:03 47.69424 -66.81490 38032 ft 525 kts 228°
2026-04-25 12:03 47.64366 -66.89260 38045 ft 525 kts 228°
2026-04-25 12:04 47.59288 -66.97037 38037 ft 525 kts 228°
2026-04-25 12:04 47.54213 -67.04788 38047 ft 526 kts 228°
2026-04-25 12:05 47.49139 -67.12515 38053 ft 526 kts 228°
2026-04-25 12:05 47.44059 -67.20225 38056 ft 526 kts 228°
2026-04-25 12:06 47.38969 -67.27930 38049 ft 526 kts 228°
2026-04-25 12:06 47.33898 -67.35665 38051 ft 527 kts 229°
2026-04-25 12:07 47.28839 -67.43385 38063 ft 528 kts 229°
2026-04-25 12:07 47.23763 -67.51109 38048 ft 526 kts 229°
2026-04-25 12:08 47.18687 -67.58811 38065 ft 526 kts 229°
2026-04-25 12:08 47.13587 -67.66528 38068 ft 526 kts 228°
2026-04-25 12:09 47.08490 -67.74219 38074 ft 526 kts 228°
2026-04-25 12:09 47.03398 -67.81879 38073 ft 526 kts 228°
2026-04-25 12:10 46.98299 -67.89527 38086 ft 526 kts 228°
2026-04-25 12:10 46.93205 -67.97146 38087 ft 526 kts 228°
2026-04-25 12:11 46.88103 -68.04754 38097 ft 523 kts 228°
2026-04-25 12:11 46.83025 -68.12305 38097 ft 525 kts 228°
2026-04-25 12:12 46.78778 -68.18604 38097 ft 524 kts 228°
2026-04-25 12:12 46.72843 -68.27381 38098 ft 522 kts 228°
2026-04-25 12:13 46.67753 -68.34885 38091 ft 521 kts 229°
2026-04-25 12:13 46.62684 -68.42336 38092 ft 521 kts 229°
2026-04-25 12:14 46.57588 -68.49807 38084 ft 521 kts 229°
2026-04-25 12:14 46.52484 -68.57269 38084 ft 521 kts 229°
2026-04-25 12:15 46.47393 -68.64690 38067 ft 519 kts 229°
2026-04-25 12:15 46.42333 -68.72046 38075 ft 520 kts 228°
2026-04-25 12:16 46.37212 -68.79469 38076 ft 519 kts 228°
2026-04-25 12:16 46.32145 -68.86793 38081 ft 520 kts 229°
2026-04-25 12:17 46.27060 -68.94123 38089 ft 519 kts 229°
2026-04-25 12:17 46.21948 -69.01471 38094 ft 518 kts 229°
2026-04-25 12:18 46.16877 -69.08741 38085 ft 518 kts 229°
2026-04-25 12:18 46.11766 -69.16047 38087 ft 518 kts 229°
2026-04-25 12:19 46.04120 -69.26941 38089 ft 518 kts 229°
2026-04-25 12:20 45.99007 -69.34199 38099 ft 518 kts 229°
2026-04-25 12:20 45.93898 -69.41432 38094 ft 518 kts 230°
2026-04-25 12:21 45.88755 -69.48695 38042 ft 517 kts 230°
2026-04-25 12:21 45.83668 -69.55858 38075 ft 517 kts 230°
2026-04-25 12:22 45.78511 -69.63100 38077 ft 518 kts 230°
2026-04-25 12:22 45.73404 -69.70252 38080 ft 517 kts 229°
2026-04-25 12:23 45.68249 -69.77453 38075 ft 517 kts 230°
2026-04-25 12:23 45.63106 -69.84616 38081 ft 517 kts 230°
2026-04-25 12:24 45.57956 -69.91770 38049 ft 519 kts 230°
2026-04-25 12:24 45.52831 -69.98870 38055 ft 519 kts 230°
2026-04-25 12:25 45.47664 -70.06011 38056 ft 519 kts 230°
2026-04-25 12:25 45.42489 -70.13140 38068 ft 516 kts 230°
2026-04-25 12:26 45.37312 -70.20257 38074 ft 520 kts 230°
2026-04-25 12:26 45.32145 -70.27338 38068 ft 518 kts 231°
2026-04-25 12:27 45.26989 -70.34385 38071 ft 516 kts 231°
2026-04-25 12:27 45.21811 -70.41446 38073 ft 518 kts 231°
2026-04-25 12:28 45.16622 -70.48499 38055 ft 516 kts 231°
2026-04-25 12:28 45.11446 -70.55518 38047 ft 515 kts 231°
2026-04-25 12:29 45.06290 -70.62493 38038 ft 517 kts 231°
2026-04-25 12:29 45.01089 -70.69508 38040 ft 516 kts 230°
2026-04-25 12:30 44.95889 -70.76507 38036 ft 519 kts 230°
2026-04-25 12:30 44.90713 -70.83450 38034 ft 516 kts 231°
2026-04-25 12:31 44.85538 -70.90374 38024 ft 514 kts 231°
2026-04-25 12:31 44.80331 -70.97330 38040 ft 516 kts 231°
2026-04-25 12:32 44.75170 -71.04198 38055 ft 513 kts 231°
2026-04-25 12:32 44.69983 -71.11089 38051 ft 515 kts 231°
2026-04-25 12:33 44.64811 -71.17934 38061 ft 509 kts 231°
2026-04-25 12:33 44.59657 -71.24747 38080 ft 513 kts 231°
2026-04-25 12:34 44.54499 -71.31544 38088 ft 513 kts 232°
2026-04-25 12:34 44.49340 -71.38326 38080 ft 511 kts 232°
2026-04-25 12:35 44.44135 -71.45150 38109 ft 511 kts 232°
2026-04-25 12:35 44.38979 -71.51888 38090 ft 508 kts 232°
2026-04-25 12:36 44.33821 -71.58619 38085 ft 507 kts 232°
2026-04-25 12:36 44.28679 -71.65308 38068 ft 506 kts 232°
2026-04-25 12:37 44.23508 -71.72025 38091 ft 510 kts 232°
2026-04-25 12:37 44.21004 -71.75442 38063 ft 498 kts 237°
2026-04-25 12:37 44.18889 -71.79149 38102 ft 491 kts 243°
2026-04-25 12:38 44.14891 -71.86819 38083 ft 492 kts 243°
2026-04-25 12:38 44.10869 -71.94479 38063 ft 493 kts 243°
2026-04-25 12:39 44.06818 -72.02141 38077 ft 491 kts 243°
2026-04-25 12:39 44.02796 -72.09706 38083 ft 490 kts 243°
2026-04-25 12:40 43.98714 -72.17360 38078 ft 491 kts 243°
2026-04-25 12:40 43.94659 -72.24934 38087 ft 493 kts 243°
2026-04-25 12:41 43.90576 -72.32535 38087 ft 489 kts 243°
2026-04-25 12:41 43.86519 -72.40073 38066 ft 491 kts 243°
2026-04-25 12:42 43.82450 -72.47610 38061 ft 491 kts 243°
2026-04-25 12:42 43.78361 -72.55160 38059 ft 489 kts 243°
2026-04-25 12:43 43.74293 -72.62655 38051 ft 490 kts 243°
2026-04-25 12:43 43.68123 -72.73989 38049 ft 493 kts 242°
2026-04-25 12:44 43.64016 -72.81509 38055 ft 495 kts 242°
2026-04-25 12:45 43.57851 -72.92754 38283 ft 491 kts 242°
2026-04-25 12:45 43.51667 -73.03992 38072 ft 487 kts 242°
2026-04-25 12:46 43.47576 -73.11408 38080 ft 490 kts 241°
2026-04-25 12:46 43.45518 -73.15132 37868 ft 492 kts 241°
2026-04-25 12:46 43.43427 -73.18911 37269 ft 493 kts 242°
2026-04-25 12:47 43.41371 -73.22616 36674 ft 491 kts 242°
2026-04-25 12:47 43.39319 -73.26310 36074 ft 487 kts 242°
2026-04-25 12:47 43.37260 -73.30012 35475 ft 483 kts 242°
2026-04-25 12:47 43.35248 -73.33627 34892 ft 484 kts 242°
2026-04-25 12:48 43.33188 -73.37328 34289 ft 485 kts 242°
2026-04-25 12:48 43.31150 -73.40981 33739 ft 482 kts 242°
2026-04-25 12:48 43.29127 -73.44606 33224 ft 484 kts 242°
2026-04-25 12:48 43.27083 -73.48261 32706 ft 481 kts 242°
2026-04-25 12:49 43.25079 -73.51834 32199 ft 474 kts 242°
2026-04-25 12:49 43.23026 -73.55387 31676 ft 474 kts 238°
2026-04-25 12:49 43.20671 -73.58508 31169 ft 480 kts 229°
2026-04-25 12:49 43.17943 -73.61125 30661 ft 484 kts 220°
2026-04-25 12:50 43.14881 -73.63161 30147 ft 492 kts 210°
2026-04-25 12:50 43.11653 -73.64674 29635 ft 494 kts 207°
2026-04-25 12:50 43.08378 -73.66090 29123 ft 495 kts 206°
2026-04-25 12:50 43.05101 -73.67490 28622 ft 494 kts 205°
2026-04-25 12:51 43.01844 -73.68874 28120 ft 487 kts 205°
2026-04-25 12:51 42.98648 -73.70227 27621 ft 479 kts 205°
2026-04-25 12:51 42.95474 -73.71571 27110 ft 474 kts 205°
2026-04-25 12:51 42.92330 -73.72901 26600 ft 471 kts 205°
2026-04-25 12:52 42.89212 -73.74219 26087 ft 468 kts 205°
2026-04-25 12:52 42.86117 -73.75523 25570 ft 463 kts 205°
2026-04-25 12:52 42.83070 -73.76807 25059 ft 461 kts 205°
2026-04-25 12:52 42.79939 -73.78133 24548 ft 478 kts 205°
2026-04-25 12:53 42.76769 -73.79468 24143 ft 475 kts 204°
2026-04-25 12:53 42.73635 -73.80784 23846 ft 470 kts 205°
2026-04-25 12:53 42.70534 -73.82167 23369 ft 466 kts 206°
2026-04-25 12:53 42.67472 -73.83550 22902 ft 462 kts 206°
2026-04-25 12:54 42.64464 -73.84906 22437 ft 456 kts 205°
2026-04-25 12:54 42.61438 -73.86269 21964 ft 456 kts 205°
2026-04-25 12:54 42.58450 -73.87612 21495 ft 455 kts 205°
2026-04-25 12:54 42.55481 -73.88943 21029 ft 450 kts 205°
2026-04-25 12:55 42.52537 -73.90259 20562 ft 444 kts 205°
2026-04-25 12:55 42.50599 -73.91125 20249 ft 440 kts 205°
2026-04-25 12:55 42.46717 -73.92857 19619 ft 437 kts 205°
2026-04-25 12:55 42.43862 -73.94133 19149 ft 435 kts 204°
2026-04-25 12:56 42.41011 -73.95403 18680 ft 433 kts 204°
2026-04-25 12:56 42.38157 -73.96672 18203 ft 429 kts 204°
2026-04-25 12:56 42.35341 -73.97924 17734 ft 427 kts 204°
2026-04-25 12:56 42.32526 -73.99173 17263 ft 422 kts 204°
2026-04-25 12:57 42.29781 -74.00391 16794 ft 417 kts 203°
2026-04-25 12:57 42.27033 -74.01608 16319 ft 414 kts 203°
2026-04-25 12:57 42.24319 -74.02810 15847 ft 412 kts 203°
2026-04-25 12:57 42.21600 -74.04013 15368 ft 410 kts 203°
2026-04-25 12:58 42.18907 -74.05204 14888 ft 407 kts 203°
2026-04-25 12:58 42.16209 -74.06396 14402 ft 403 kts 202°
2026-04-25 12:58 42.13558 -74.07566 13923 ft 400 kts 202°
2026-04-25 12:58 42.10946 -74.08717 13437 ft 397 kts 202°
2026-04-25 12:59 42.08343 -74.09864 12953 ft 393 kts 202°
2026-04-25 12:59 42.05764 -74.10999 12461 ft 389 kts 202°
2026-04-25 12:59 42.03205 -74.12123 11974 ft 387 kts 202°
2026-04-25 12:59 42.00650 -74.13245 11488 ft 385 kts 201°
2026-04-25 13:00 41.98111 -74.14359 10995 ft 382 kts 201°
2026-04-25 13:00 41.97277 -74.14724 10831 ft 381 kts 201°
2026-04-25 13:00 41.93205 -74.16503 9922 ft 354 kts 201°
2026-04-25 13:00 41.90959 -74.17483 9447 ft 335 kts 201°
2026-04-25 13:01 41.88791 -74.18430 8965 ft 320 kts 201°
2026-04-25 13:01 41.86719 -74.19335 8604 ft 302 kts 201°
2026-04-25 13:01 41.84774 -74.20185 8413 ft 290 kts 201°
2026-04-25 13:01 41.82864 -74.21022 8166 ft 286 kts 201°
2026-04-25 13:02 41.80991 -74.21841 7911 ft 281 kts 201°
2026-04-25 13:02 41.79158 -74.22641 7659 ft 278 kts 201°
2026-04-25 13:02 41.77303 -74.23449 7400 ft 276 kts 201°
2026-04-25 13:02 41.75484 -74.24242 7148 ft 275 kts 200°
2026-04-25 13:03 41.73686 -74.25024 6966 ft 273 kts 200°
2026-04-25 13:03 41.71881 -74.25810 6952 ft 275 kts 200°
2026-04-25 13:03 41.70039 -74.26611 6950 ft 275 kts 200°
2026-04-25 13:03 41.68218 -74.27402 6949 ft 275 kts 200°
2026-04-25 13:04 41.66420 -74.28183 6958 ft 275 kts 200°
2026-04-25 13:04 41.64577 -74.28982 6944 ft 275 kts 201°
2026-04-25 13:04 41.62780 -74.29761 6950 ft 274 kts 200°
2026-04-25 13:04 41.60966 -74.30548 6954 ft 274 kts 201°
2026-04-25 13:05 41.59141 -74.31338 6946 ft 273 kts 201°
2026-04-25 13:05 41.57348 -74.32114 6942 ft 272 kts 201°
2026-04-25 13:05 41.55548 -74.32893 6956 ft 273 kts 201°
2026-04-25 13:05 41.53747 -74.33672 6950 ft 273 kts 200°
2026-04-25 13:06 41.51926 -74.34460 6959 ft 273 kts 201°
2026-04-25 13:06 41.50122 -74.35239 6962 ft 273 kts 200°
2026-04-25 13:06 41.48307 -74.36022 6959 ft 273 kts 200°
2026-04-25 13:06 41.46508 -74.36798 6959 ft 274 kts 200°
2026-04-25 13:07 41.44693 -74.37582 6951 ft 275 kts 200°
2026-04-25 13:07 41.42881 -74.38362 6890 ft 276 kts 201°
2026-04-25 13:07 41.41035 -74.39157 6654 ft 275 kts 200°
2026-04-25 13:07 41.39229 -74.39934 6408 ft 272 kts 200°
2026-04-25 13:08 41.37436 -74.40706 6165 ft 270 kts 200°
2026-04-25 13:08 41.35674 -74.41464 5968 ft 266 kts 200°
2026-04-25 13:08 41.33917 -74.42218 5958 ft 266 kts 199°
2026-04-25 13:08 41.32161 -74.42973 5953 ft 265 kts 200°
2026-04-25 13:09 41.30397 -74.43729 5955 ft 265 kts 200°
2026-04-25 13:09 41.28645 -74.44481 5952 ft 266 kts 199°
2026-04-25 13:09 41.26876 -74.45239 5954 ft 266 kts 199°
2026-04-25 13:09 41.25109 -74.45995 5953 ft 265 kts 200°
2026-04-25 13:10 41.23347 -74.46750 5962 ft 265 kts 200°
2026-04-25 13:10 41.21592 -74.47501 5962 ft 267 kts 200°
2026-04-25 13:10 41.19835 -74.48252 5963 ft 266 kts 200°
2026-04-25 13:10 41.18071 -74.49007 5959 ft 267 kts 199°
2026-04-25 13:11 41.16311 -74.49757 5963 ft 266 kts 199°
2026-04-25 13:11 41.14551 -74.50509 5961 ft 265 kts 200°
2026-04-25 13:11 41.12779 -74.51265 5960 ft 266 kts 200°
2026-04-25 13:11 41.11030 -74.52010 5968 ft 265 kts 200°
2026-04-25 13:12 41.09268 -74.52761 5969 ft 265 kts 200°
2026-04-25 13:12 41.07526 -74.53495 5965 ft 265 kts 197°
2026-04-25 13:12 41.05720 -74.53931 5962 ft 265 kts 187°
2026-04-25 13:12 41.04475 -74.54052 5976 ft 266 kts 186°
2026-04-25 13:13 41.02018 -74.54036 5958 ft 266 kts 179°
2026-04-25 13:13 41.00158 -74.53849 5940 ft 266 kts 178°
2026-04-25 13:13 40.98308 -74.53664 5947 ft 268 kts 178°
2026-04-25 13:13 40.96466 -74.53488 5950 ft 268 kts 178°
2026-04-25 13:14 40.94588 -74.53315 5952 ft 268 kts 178°
2026-04-25 13:14 40.92712 -74.53136 5951 ft 266 kts 178°
2026-04-25 13:14 40.90884 -74.52960 5953 ft 266 kts 178°
2026-04-25 13:14 40.89015 -74.52787 5954 ft 266 kts 178°
2026-04-25 13:15 40.87165 -74.52612 5954 ft 266 kts 178°
2026-04-25 13:15 40.85327 -74.52441 5955 ft 266 kts 178°
2026-04-25 13:15 40.83474 -74.52272 5955 ft 266 kts 178°
2026-04-25 13:15 40.81633 -74.52097 5952 ft 266 kts 178°
2026-04-25 13:16 40.79795 -74.51918 5954 ft 266 kts 178°
2026-04-25 13:16 40.77932 -74.51736 5944 ft 267 kts 178°
2026-04-25 13:16 40.76089 -74.51557 5732 ft 267 kts 178°
2026-04-25 13:16 40.74250 -74.51393 5478 ft 264 kts 178°
2026-04-25 13:17 40.72417 -74.51241 5223 ft 260 kts 178°
2026-04-25 13:17 40.70618 -74.51110 4995 ft 257 kts 178°
2026-04-25 13:17 40.68844 -74.50998 4955 ft 259 kts 178°
2026-04-25 13:17 40.67051 -74.50891 4948 ft 249 kts 178°
2026-04-25 13:18 40.65377 -74.50792 4949 ft 238 kts 178°
2026-04-25 13:18 40.63734 -74.50696 4952 ft 236 kts 178°
2026-04-25 13:18 40.62071 -74.50600 4839 ft 240 kts 178°
2026-04-25 13:18 40.60409 -74.50515 4594 ft 240 kts 178°
2026-04-25 13:19 40.58740 -74.50447 4341 ft 239 kts 178°
2026-04-25 13:19 40.57066 -74.50396 4087 ft 238 kts 178°
2026-04-25 13:19 40.55439 -74.50364 3957 ft 232 kts 178°
2026-04-25 13:19 40.54893 -74.50356 3950 ft 229 kts 178°
2026-04-25 13:20 40.52272 -74.50017 3925 ft 229 kts 156°
2026-04-25 13:20 40.51035 -74.48711 3682 ft 229 kts 125°
2026-04-25 13:20 40.50529 -74.46768 3409 ft 232 kts 95°
2026-04-25 13:20 40.50608 -74.44630 3152 ft 232 kts 88°
2026-04-25 13:21 40.50740 -74.42539 2938 ft 230 kts 89°
2026-04-25 13:21 40.50860 -74.40463 2771 ft 226 kts 86°
2026-04-25 13:21 40.51306 -74.38535 2732 ft 217 kts 77°
2026-04-25 13:21 40.51657 -74.36663 2727 ft 206 kts 80°
2026-04-25 13:22 40.51767 -74.34862 2744 ft 191 kts 94°
2026-04-25 13:22 40.51721 -74.33164 2723 ft 186 kts 95°
2026-04-25 13:22 40.51671 -74.31484 2544 ft 183 kts 95°
2026-04-25 13:23 40.51847 -74.28234 2479 ft 187 kts 67°
2026-04-25 13:23 40.52751 -74.27000 2480 ft 193 kts 37°
2026-04-25 13:23 40.53968 -74.26154 2488 ft 197 kts 30°
2026-04-25 13:23 40.55211 -74.25394 2495 ft 197 kts 34°
2026-04-25 13:24 40.56411 -74.24539 2483 ft 191 kts 32°
2026-04-25 13:24 40.57585 -74.23809 2291 ft 188 kts 30°
2026-04-25 13:24 40.58768 -74.23084 2052 ft 185 kts 31°
2026-04-25 13:24 40.59931 -74.22357 1806 ft 183 kts 31°
2026-04-25 13:25 40.61019 -74.21676 1576 ft 168 kts 31°
2026-04-25 13:25 40.62025 -74.21043 1374 ft 151 kts 32°
2026-04-25 13:25 40.62944 -74.20461 1178 ft 143 kts 32°
2026-04-25 13:25 40.63842 -74.19894 984 ft 143 kts 32°
2026-04-25 13:26 40.64736 -74.19329 793 ft 141 kts 31°
2026-04-25 13:26 40.65614 -74.18790 595 ft 139 kts 31°
2026-04-25 13:26 40.66492 -74.18238 377 ft 138 kts 31°
2026-04-25 13:26 40.67342 -74.17706 210 ft 133 kts 31°
2026-04-25 13:27 40.68162 -74.17179 45 ft 130 kts 32°
2026-04-25 13:27 40.69008 -74.16634 286 ft 150 kts 30°
2026-04-25 13:27 40.70063 -74.15984 897 ft 188 kts 31°
2026-04-25 13:27 40.71140 -74.15262 1634 ft 165 kts 31°
2026-04-25 13:28 40.72252 -74.14597 1650 ft 192 kts 27°
2026-04-25 13:28 40.72658 -74.14378 1693 ft 197 kts 27°
2026-04-25 13:28 40.74868 -74.13198 1964 ft 220 kts 26°
2026-04-25 13:28 40.76317 -74.12408 1966 ft 225 kts 26°
2026-04-25 13:29 40.77587 -74.11713 1965 ft 225 kts 26°
2026-04-25 13:29 40.79034 -74.10919 1965 ft 224 kts 26°
2026-04-25 13:29 40.80538 -74.10324 1956 ft 229 kts
2026-04-25 13:30 40.83200 -74.12360 2571 ft 239 kts 296°
2026-04-25 13:30 40.83553 -74.14476 3066 ft 238 kts 264°
2026-04-25 13:30 40.83333 -74.16582 3577 ft 236 kts 258°
2026-04-25 13:31 40.82754 -74.20837 4611 ft 234 kts 258°
2026-04-25 13:31 40.82449 -74.22913 5121 ft 232 kts 258°
2026-04-25 13:31 40.82131 -74.24988 5637 ft 231 kts 258°
2026-04-25 13:31 40.81788 -74.27052 5929 ft 232 kts 253°
2026-04-25 13:32 40.80983 -74.28828 5942 ft 229 kts 223°
2026-04-25 13:32 40.79617 -74.29944 5957 ft 231 kts 208°
2026-04-25 13:32 40.78181 -74.30878 5959 ft 230 kts 208°
2026-04-25 13:32 40.76737 -74.31804 5960 ft 231 kts 208°
2026-04-25 13:33 40.75292 -74.32729 5960 ft 230 kts 208°
2026-04-25 13:33 40.73857 -74.33645 5962 ft 231 kts 208°
2026-04-25 13:33 40.72404 -74.34577 5963 ft 230 kts 208°
2026-04-25 13:33 40.71437 -74.35195 5964 ft 230 kts 208°
2026-04-25 13:34 40.69506 -74.36441 5686 ft 237 kts 207°
2026-04-25 13:34 40.68005 -74.37434 5300 ft 242 kts 207°
2026-04-25 13:34 40.66500 -74.38464 4917 ft 247 kts 207°
2026-04-25 13:34 40.64991 -74.39532 4535 ft 251 kts 207°
2026-04-25 13:35 40.63444 -74.40663 4148 ft 254 kts 208°
2026-04-25 13:35 40.61903 -74.41821 3767 ft 257 kts 208°
2026-04-25 13:35 40.60369 -74.43001 3336 ft 254 kts 207°
2026-04-25 13:35 40.58884 -74.44177 3015 ft 245 kts 208°
2026-04-25 13:36 40.57469 -74.45315 2973 ft 233 kts 208°
2026-04-25 13:36 40.56029 -74.46133 2947 ft 216 kts 184°
2026-04-25 13:36 40.54635 -74.45839 2936 ft 198 kts 149°
2026-04-25 13:36 40.53727 -74.44617 2946 ft 185 kts 121°
2026-04-25 13:37 40.53130 -74.43125 2963 ft 183 kts 118°
2026-04-25 13:37 40.52563 -74.41643 2969 ft 182 kts 116°
2026-04-25 13:37 40.52280 -74.40037 2968 ft 182 kts 98°
2026-04-25 13:37 40.52179 -74.38378 2924 ft 182 kts 97°
2026-04-25 13:38 40.52082 -74.36719 2877 ft 183 kts 97°
2026-04-25 13:38 40.51985 -74.35062 2825 ft 183 kts 97°
2026-04-25 13:38 40.51890 -74.33415 2778 ft 181 kts 97°
2026-04-25 13:38 40.51794 -74.31750 2767 ft 182 kts 97°
2026-04-25 13:39 40.51698 -74.30092 2764 ft 178 kts 97°
2026-04-25 13:39 40.51761 -74.28532 2770 ft 171 kts 76°
2026-04-25 13:39 40.52479 -74.27295 2759 ft 178 kts 44°
2026-04-25 13:39 40.53524 -74.26390 2769 ft 182 kts 35°
2026-04-25 13:40 40.54669 -74.25628 2771 ft 182 kts 30°
2026-04-25 13:40 40.55825 -74.24926 2661 ft 188 kts 30°
2026-04-25 13:40 40.57013 -74.24192 2419 ft 186 kts 31°
2026-04-25 13:40 40.58143 -74.23488 2179 ft 172 kts 31°
2026-04-25 13:41 40.59187 -74.22834 1968 ft 162 kts 32°
2026-04-25 13:41 40.60178 -74.22209 1763 ft 150 kts 32°
2026-04-25 13:41 40.61086 -74.21637 1573 ft 140 kts 33°
2026-04-25 13:41 40.61952 -74.21088 1392 ft 136 kts 33°
2026-04-25 13:42 40.62800 -74.20551 1211 ft 137 kts 32°
2026-04-25 13:42 40.63669 -74.20005 1021 ft 136 kts 32°
2026-04-25 13:42 40.64519 -74.19467 830 ft 135 kts 32°
2026-04-25 13:42 40.65351 -74.18941 646 ft 132 kts 32°
2026-04-25 13:43 40.66184 -74.18416 467 ft 132 kts 32°
2026-04-25 13:43 40.67014 -74.17902 277 ft 133 kts 31°
2026-04-25 13:43 40.67845 -74.17377 87 ft 133 kts 30°
2026-04-25 13:43 40.68612 -74.16893 20 ft 104 kts 26°
2026-04-25 13:44 40.69153 -74.16541 20 ft 71 kts 26°
2026-04-25 13:44 40.69396 -74.16390 20 ft 28 kts 25°
2026-04-25 13:44 40.69538 -74.16376 20 ft 20 kts 323°
2026-04-25 13:44 40.69584 -74.16459 20 ft 4 kts 296°
2026-04-25 13:45 40.69587 -74.16466 20 ft 0 kts 295°
2026-04-25 13:46 40.69592 -74.16480 20 ft 4 kts 296°
2026-04-25 13:46 40.69614 -74.16538 20 ft 9 kts 297°
2026-04-25 13:46 40.69652 -74.16635 20 ft 14 kts 294°
2026-04-25 13:46 40.69683 -74.16730 20 ft 8 kts 281°
2026-04-25 13:47 40.69676 -74.16793 20 ft 3 kts 253°
2026-04-25 13:47 40.69662 -74.16850 20 ft 9 kts 251°
2026-04-25 13:47 40.69648 -74.16898 20 ft 0 kts 237°
2026-04-25 13:47 40.69621 -74.16914 20 ft 10 kts 200°
2026-04-25 13:48 40.69525 -74.16968 20 ft 18 kts 205°
2026-04-25 13:48 40.69416 -74.17037 20 ft 18 kts 206°
2026-04-25 13:48 40.69291 -74.17117 20 ft 21 kts 205°
2026-04-25 13:48 40.69157 -74.17200 20 ft 13 kts 205°
2026-04-25 13:49 40.69059 -74.17264 20 ft 17 kts 205°
2026-04-25 13:49 40.68969 -74.17321 20 ft 5 kts 206°
2026-04-25 13:49 40.68923 -74.17349 20 ft 9 kts 205°
2026-04-25 13:49 40.68855 -74.17395 20 ft 12 kts 210°
2026-04-25 13:50 40.68766 -74.17451 20 ft 15 kts 204°
2026-04-25 13:50 40.68657 -74.17518 20 ft 19 kts 206°
2026-04-25 13:50 40.68612 -74.17600 20 ft 8 kts 283°
2026-04-25 13:50 40.68657 -74.17666 20 ft 11 kts 342°
2026-04-25 13:51 40.68713 -74.17667 20 ft 5 kts
2026-04-25 13:51 40.68717 -74.17667 20 ft 0 kts